GFSFLT1_2pvu_pres_264.txt.gz
Presure
205 204 198 232 223 233 217 203 208 202 206 197 197 200 202 204 212 215 230 233 216 211 220 204 203 198 201 183 188 194 185 187
177 210 197 222 215 225 215 217 213 211 206 206 211 242 244 215 215 210 219 217 213 215 202 195 193 178 222 233 216 206 183 201
196 207 204 205 221 210 216 212 205 220 236 231 220 225 188 209 219 214 211 218 216 224 221 221 230 252 257 258 240 215 252 217
230 209 206 199 202 201 194 237 240 218 238 205 180 176 182 164 196 216 193 199 207 205 221 252 225 234 248 255 264 257 250 244
212 196 201 194 192 253 254 240 232 230 181 174 170 180 160 176 179 216 222 225 237 255 250 210 307 320 304 293 274 269 265 262
192 198 202 197 254 249 244 217 203 202 188 175 164 163 185 182 198 228 245 247 230 253 244 308 278 254 249 242 241 244 245 241
212 209 196 182 198 237 208 181 176 198 164 153 184 163 184 196 233 227 221 246 218 274 287 268 243 240 237 241 232 228 227 227
195 238 223 216 200 196 198 197 176 173 203 189 175 203 223 212 230 247 248 249 275 281 261 243 237 232 228 222 219 216 215 215
228 202 203 197 209 207 209 195 215 207 151 181 184 183 238 233 240 248 248 234 280 262 245 237 231 226 223 216 213 211 208 210
208 216 220 182 205 192 223 173 170 183 206 181 218 214 170 236 235 254 243 244 266 246 232 227 221 224 211 210 201 191 209 225
185 198 195 188 191 205 216 191 197 205 202 186 175 207 237 243 240 255 242 245 263 245 232 224 223 211 209 198 196 197 189 197
202 201 211 192 195 188 198 182 203 155 184 199 184 200 235 239 248 254 258 247 258 248 236 227 216 217 206 198 197 203 211 213
225 184 211 201 191 192 162 173 153 205 177 175 175 212 234 237 241 270 260 248 268 256 240 229 217 208 210 206 208 226 195 208
210 203 184 170 193 195 225 200 192 203 189 201 193 188 204 239 237 260 259 263 273 252 237 222 208 198 211 221 222 197 209 204
195 205 210 188 166 177 199 207 204 193 188 199 184 232 226 238 237 229 258 274 259 240 227 213 211 195 212 231 235 224 215 222
180 205 204 209 207 224 193 202 190 200 186 196 197 236 232 232 228 237 257 275 254 234 227 205 211 208 217 227 237 241 241 232
187 188 194 193 198 209 223 226 207 199 185 196 194 224 224 235 226 236 258 264 247 233 229 193 193 204 216 222 237 240 241 246
188 182 184 182 198 204 230 207 217 224 198 188 196 222 229 228 233 227 254 259 250 236 227 198 200 209 217 234 239 240 243 235
175 199 202 210 190 212 196 223 199 217 207 197 195 213 219 224 236 228 256 254 256 239 225 202 207 214 228 234 237 241 238 250

GFSFLT1_2pvu_pres_267.txt.gz
Presure
182 189 213 204 184 206 194 187 233 202 229 229 218 220 216 221 231 238 221 191 187 194 211 206 199 222 212 206 228 194 224 220
162 210 195 210 219 221 194 212 190 218 222 212 238 219 217 229 200 185 172 156 153 161 201 224 234 232 230 203 202 248 264 253
218 207 166 213 197 203 206 193 210 227 225 239 235 240 230 180 174 166 163 157 176 207 223 231 237 216 255 250 229 255 227 249
228 215 202 204 204 202 208 183 213 254 250 233 222 202 200 186 148 154 170 152 226 238 235 262 263 261 176 221 312 298 292 291
195 210 201 199 203 187 253 203 197 243 203 196 184 183 206 210 213 158 158 197 225 247 247 257 268 259 318 299 275 260 248 240
203 192 182 205 225 215 256 203 212 209 221 180 223 217 210 187 192 192 192 184 238 242 261 267 256 293 281 273 252 238 232 232
217 212 200 214 201 193 202 187 174 210 224 209 179 171 209 195 178 189 181 236 186 255 260 259 249 261 258 259 231 235 228 226
211 189 195 210 190 200 198 185 196 206 214 192 185 187 162 167 196 179 204 224 230 240 286 264 254 254 258 238 231 229 225 222
194 221 214 198 186 215 176 190 172 188 164 185 223 186 162 187 193 192 197 222 227 245 270 263 254 241 243 242 230 227 222 222
185 188 212 215 226 212 179 188 188 169 156 158 188 195 201 179 188 194 191 219 239 242 234 260 252 254 264 247 232 229 225 224
176 174 187 172 204 215 201 190 217 207 164 179 198 196 186 195 186 198 213 218 238 215 241 260 267 271 263 251 238 229 223 223
164 180 188 177 188 193 201 203 200 201 212 208 184 199 192 198 187 194 194 192 234 240 232 264 279 270 255 247 235 228 220 209
188 186 194 200 181 194 183 185 193 192 197 225 203 213 218 221 209 204 196 193 228 231 238 253 270 266 250 236 229 216 192 218
159 167 202 180 191 194 176 186 193 189 192 217 220 219 198 213 223 203 201 190 232 241 239 246 258 265 251 240 231 206 195 194
155 193 186 203 188 185 213 198 196 189 207 205 217 209 216 227 227 208 199 191 226 236 238 257 257 260 261 242 232 224 198 206
188 170 163 176 171 162 170 195 212 199 197 194 213 218 211 229 228 235 197 199 214 244 234 252 262 267 265 248 230 193 214 218
177 204 164 200 183 172 206 201 186 210 190 202 195 212 221 217 230 228 202 200 205 230 239 257 257 269 260 242 210 209 216 219
155 175 171 177 178 183 196 187 162 185 181 208 222 219 218 233 237 229 222 204 207 231 246 254 255 267 257 224 202 213 219 232
203 189 190 183 182 188 167 209 190 187 187 204 216 222 217 244 241 227 228 219 209 230 248 257 254 268 247 203 210 221 232 242

GFSFLT1_2pvu_pres_270.txt.gz
Presure
212 223 232 206 207 221 213 201 202 201 184 211 186 219 233 228 229 238 239 232 220 181 154 162 167 167 156 151 237 250 263 255
184 188 236 218 212 211 206 197 206 192 213 217 233 234 236 243 236 203 204 199 183 190 183 160 159 162 229 250 255 256 268 267
169 173 163 204 219 210 202 202 201 268 257 195 243 257 193 193 194 183 184 216 209 220 207 195 198 195 165 270 276 279 270 263
207 177 192 150 212 209 205 197 211 205 201 191 187 200 222 203 202 188 221 201 182 196 191 211 206 208 253 279 277 265 289 287
213 194 164 160 217 220 204 220 228 188 211 183 187 207 221 223 196 186 171 152 190 191 206 207 187 237 257 241 271 259 270 263
180 196 210 181 183 210 172 205 209 216 201 200 185 169 167 194 178 216 202 195 178 190 193 189 224 249 234 251 268 256 245 255
173 135 169 188 188 183 181 225 197 205 211 191 204 208 164 179 202 169 201 197 195 187 196 191 193 245 244 232 261 261 253 250
170 184 154 178 171 186 161 196 192 208 207 213 210 203 205 221 224 192 200 197 203 202 203 197 199 206 235 245 257 271 273 257
180 178 170 189 187 171 165 165 180 196 192 186 195 198 200 201 220 206 205 209 208 226 219 204 205 196 244 248 243 265 280 271
169 172 151 188 179 189 186 186 170 207 181 179 154 189 187 199 213 207 207 214 216 234 229 216 203 196 239 240 243 264 267 270
198 174 159 171 159 171 165 186 172 183 213 195 206 197 202 197 204 213 215 216 221 227 230 228 200 195 212 235 238 262 255 259
181 180 164 163 192 185 172 181 160 203 204 177 196 179 183 196 200 203 205 212 219 230 232 235 224 191 206 226 243 260 260 260
156 178 199 189 159 158 200 198 172 176 182 179 184 206 183 198 191 209 222 227 217 238 239 230 159 217 209 226 250 262 260 272
189 162 164 180 194 166 189 169 193 212 196 200 209 212 197 182 194 209 206 213 232 251 243 231 227 227 212 229 246 264 260 274
186 193 182 201 159 160 189 158 163 175 192 206 183 141 177 200 195 204 207 210 230 250 247 238 234 234 227 237 243 259 266 275
187 188 203 150 192 201 206 176 160 204 173 177 198 200 192 194 195 209 228 215 217 250 253 245 235 238 231 240 247 266 277 274
172 153 198 200 203 159 159 194 192 203 200 209 199 189 220 206 219 205 227 211 214 249 253 246 245 226 241 242 253 271 280 226
197 180 196 189 196 201 214 166 221 150 164 195 192 229 220 233 225 211 216 209 215 250 257 249 244 235 241 249 265 282 230 220
186 195 201 205 202 209 208 215 209 218 218 179 233 215 226 249 222 238 232 218 231 254 257 249 236 240 248 254 277 226 218 230

GFSFLT1_2pvu_pres_273.txt.gz
Presure
176 173 165 187 199 178 177 206 215 201 195 233 222 228 164 188 225 228 199 184 219 186 166 192 198 199 217 209 193 192 188 207
198 196 192 205 196 186 202 154 227 214 209 198 189 183 203 193 172 195 222 217 174 219 171 167 155 182 179 181 176 176 257 210
168 193 184 182 188 199 193 173 189 211 236 207 204 199 200 193 173 198 164 157 184 182 192 191 166 195 186 191 178 197 200 252
173 173 197 189 162 197 179 192 196 168 234 185 208 214 199 189 201 204 184 163 174 164 189 194 210 198 192 194 196 201 203 235
166 180 199 199 169 166 182 195 194 187 199 194 198 207 212 211 205 205 207 209 227 217 195 207 219 225 230 227 217 207 200 235
185 183 164 186 188 194 200 183 165 177 200 174 197 195 186 186 187 184 185 188 216 228 234 221 231 208 244 235 236 216 202 214
198 180 183 167 169 181 167 174 186 181 162 184 167 167 189 202 190 201 192 210 209 213 219 221 225 221 229 236 236 213 202 208
161 184 186 183 180 197 204 189 167 190 166 195 189 211 197 193 176 191 207 186 199 210 222 223 232 223 238 243 242 236 216 203
182 165 200 184 179 175 174 170 190 160 177 197 160 196 192 193 174 178 206 198 174 201 213 213 215 233 241 251 240 234 232 222
169 181 189 190 153 172 153 150 152 161 161 181 215 173 188 181 217 195 225 210 204 210 211 210 212 224 247 254 242 226 231 228
182 182 167 196 180 196 156 192 166 206 182 189 174 220 208 183 167 189 200 213 202 204 218 216 227 217 232 256 249 241 228 228
194 194 180 185 164 194 182 172 188 202 175 207 159 165 204 205 205 201 185 194 184 216 216 225 218 215 217 256 255 243 232 218
173 182 183 192 191 179 207 156 181 214 215 213 209 213 216 218 212 208 196 227 215 234 226 212 219 215 223 255 255 246 247 235
194 173 189 186 182 176 208 207 195 200 219 210 212 219 216 186 225 228 208 223 225 249 223 238 227 217 235 259 257 245 245 245
170 177 189 182 160 189 159 148 208 213 209 213 197 212 224 226 185 227 246 237 239 248 226 232 224 234 265 240 254 251 250 248
188 181 186 188 175 162 189 211 184 209 194 156 213 217 207 233 231 239 241 239 240 245 222 219 224 216 264 238 257 253 246 253
180 182 155 153 188 181 200 202 204 209 190 202 214 140 234 244 228 234 239 244 253 244 245 232 211 215 242 255 252 248 258 254
187 182 180 166 182 193 171 197 184 210 152 220 169 232 225 240 235 243 237 255 252 230 250 270 218 214 259 254 255 254 252 262
177 179 172 171 188 193 199 201 204 169 196 216 218 246 243 213 225 236 247 240 247 223 247 270 270 261 255 253 254 256 257 278

GFSFLT1_2pvu_pres_279.txt.gz
Presure
139 151 157 165 166 168 178 172 200 171 184 166 209 189 204 194 197 154 148 210 192 197 182 162 196 195 204 191 207 209 211 222
163 162 154 163 200 162 194 203 185 191 189 171 165 175 188 165 174 208 206 156 182 194 207 188 194 190 200 212 207 212 211 207
154 166 151 186 165 177 196 180 172 196 200 172 180 172 169 180 181 168 198 195 182 152 197 176 196 193 201 205 198 204 213 214
160 153 158 188 165 184 186 175 185 175 175 169 198 183 196 159 164 192 209 215 218 221 205 208 215 219 193 208 210 209 193 222
151 167 157 168 185 175 184 172 176 175 166 177 162 212 163 204 152 213 207 197 199 216 211 214 234 232 219 206 195 205 206 226
162 177 211 172 193 174 183 173 162 169 182 168 151 193 166 152 199 218 185 216 206 229 221 233 241 251 244 240 249 232 237 233
163 185 194 200 201 182 180 181 183 168 170 168 174 167 174 166 185 160 192 165 210 171 241 225 238 244 244 239 241 256 253 243
172 167 173 208 191 173 168 167 173 162 170 155 195 168 158 184 197 212 161 163 224 240 152 209 242 242 245 249 243 248 257 260
171 203 172 194 176 182 185 171 183 178 176 162 183 192 174 172 197 154 221 216 229 228 243 260 255 260 264 273 264 236 240 263
180 173 202 173 174 185 176 174 179 168 200 178 168 192 191 165 167 180 146 210 206 225 223 239 230 257 255 269 269 264 270 251
163 155 157 169 173 172 182 165 163 176 166 187 159 186 144 197 169 133 167 227 219 233 226 229 238 244 245 258 266 264 262 255
148 157 160 168 160 176 183 167 153 166 185 185 193 170 201 161 174 213 191 218 223 234 202 244 232 243 256 256 253 268 255 258
160 158 175 166 147 161 162 171 194 194 173 160 163 203 190 174 196 198 212 216 227 229 230 241 238 230 250 261 250 277 272 253
163 166 160 184 168 169 162 178 166 177 168 180 188 182 193 192 204 193 201 216 221 225 232 240 236 237 243 249 255 268 271 255
163 165 162 153 161 158 153 174 192 168 191 184 194 182 196 184 198 207 212 221 215 235 220 206 241 236 242 246 263 264 270 254
159 176 182 158 186 192 200 198 157 167 168 176 193 189 193 195 190 211 215 221 215 222 216 234 230 238 247 243 255 268 264 253
163 197 190 192 195 201 173 167 199 183 193 182 185 197 180 196 193 210 221 219 228 231 212 213 232 238 250 259 252 273 262 276
205 188 187 141 188 200 188 178 163 192 173 188 166 182 167 196 200 209 221 220 190 218 212 212 234 237 251 261 262 275 273 284
197 210 198 188 198 189 151 193 197 174 189 181 185 193 195 198 200 211 225 219 218 221 206 218 232 240 251 260 270 269 277 280

GFSFLT1_2pvu_pres_282.txt.gz
Presure
141 135 159 142 177 150 186 193 171 197 178 172 172 174 178 177 181 176 180 212 179 178 195 195 205 220 217 202 202 204 220 218
168 165 136 171 155 190 173 199 189 187 182 177 178 188 169 166 173 179 162 171 209 219 180 226 207 204 213 216 215 217 218 220
142 155 149 155 160 173 178 176 189 182 172 177 171 160 183 186 179 169 170 167 156 223 196 207 220 253 223 217 247 236 238 229
202 159 152 156 177 175 200 179 198 161 153 178 183 163 172 168 194 172 162 163 146 224 195 213 233 243 254 271 267 258 251 250
153 179 160 145 186 173 150 154 161 188 154 177 178 165 172 171 172 157 175 179 194 173 216 181 227 216 238 197 173 275 272 281
159 156 163 149 170 162 164 160 162 181 168 172 181 163 160 200 183 159 182 172 173 224 197 225 198 240 206 251 239 255 259 277
144 163 151 177 170 165 165 163 164 160 177 170 177 161 158 168 167 157 179 173 148 136 210 215 217 246 240 251 248 230 263 267
156 154 153 172 168 162 153 164 149 166 170 180 172 151 154 184 167 168 180 177 136 200 204 225 222 229 231 232 249 242 244 258
166 146 153 170 161 165 143 167 164 162 154 170 172 169 184 171 171 181 170 173 186 127 210 225 207 210 207 226 242 243 243 251
157 174 165 172 160 149 147 202 164 156 166 171 176 163 195 179 169 193 165 191 186 124 200 213 225 225 222 218 218 235 237 254
151 152 164 170 164 154 142 181 153 176 178 163 162 205 173 178 150 188 189 191 201 123 203 208 221 223 221 219 207 227 236 252
164 162 178 175 179 132 167 163 156 165 176 171 175 191 172 163 210 174 189 192 196 198 200 173 214 220 224 229 206 222 242 249
161 172 166 168 161 159 170 176 171 166 183 184 199 174 196 210 180 184 168 194 190 201 204 200 221 219 216 214 216 222 233 241
152 150 166 147 168 146 140 151 188 186 182 179 199 187 188 176 169 176 172 193 192 193 202 194 222 230 221 215 213 218 223 240
138 179 165 197 186 193 184 183 178 192 195 193 190 186 200 181 185 194 192 193 190 186 199 205 227 235 217 215 205 217 222 241
142 177 191 145 182 192 188 192 206 179 195 186 159 181 181 191 195 187 193 190 195 201 199 181 219 224 225 174 206 219 227 250
169 170 172 185 200 190 200 196 199 154 193 200 195 185 193 194 181 198 189 189 195 205 202 199 225 235 181 212 213 216 263 259
189 212 162 189 196 196 139 188 192 154 146 187 190 201 190 155 200 191 192 194 204 203 203 209 230 227 211 201 206 232 271 269
192 206 188 196 169 145 177 201 188 185 184 201 189 194 117 194 192 187 195 196 190 201 204 215 228 219 205 208 215 262 274 291